Tracking 18951 objects as of 21-Jan-2018
HD Live streaming from Space Station
objects crossing your sky now

CLUSTER II-FM7

Track CLUSTER II-FM7 now!
CLUSTER II-FM7 is classified as:


NORAD ID: 26411
Int'l Code: 2000-041B
Perigee: 30,111.1 km
Apogee: 102,671.2 km
Inclination: 130.0 °
Period: 3,255.5 minutes
Semi major axis: 72762 km
RCS: 1.5887 m2 (large)
Launch date: July 16, 2000
Source: European Space Agency (ESA)
Launch site: TYURATAM MISSILE AND SPACE COMPLEX (TTMTR)
aabbcc
Your satellite tracking list
Your tracking list is empty




NASA's NSSDC Master Catalog

Two Line Element Set (TLE):
1 26411U 00041B   18021.77844625 +.00000016 +00000-0 +00000-0 0  9991
2 26411 130.0295 336.1291 4986120 165.6944 358.8642 00.44232847006754
Source of the keplerian elements: AFSPC